1486069200.04,3515,9.13,73058.8,-5.93,-21.57,-15.35,0,*6E
1486069201.3,3516,9.13,73058.3,-5.91,-21.23,-15.21,0,*69
1486069202.54,3517,9.13,73056.0,-5.91,-21.23,-15.49,0,*66
1486069203.77,3518,9.13,73050.8,-5.91,-21.23,-15.63,0,*61
1486069205.03,3519,9.13,73062.0,-5.91,-21.03,-15.57,0,*65
1486069206.24,3520,9.13,73064.3,-5.91,-20.43,-15.29,0,*63
1486069207.52,3521,9.13,73062.8,-5.89,-20.53,-15.43,0,*66
1486069208.75,3522,9.13,73054.5,-5.89,-20.73,-15.71,0,*66
1486069210.0,3523,9.13,73050.3,-5.89,-20.73,-15.85,0,*6C
1486069211.2,3524,9.13,73056.0,-5.87,-20.69,-15.99,0,*63
1486069212.43,3525,9.13,73060.3,-5.89,-20.59,-15.99,0,*6F
1486069213.67,3526,9.13,73050.5,-5.89,-20.43,-16.03,0,*67
1486069214.89,3527,9.13,73052.0,-5.89,-20.39,-16.03,0,*6B
1486069216.12,3528,9.13,73070.0,-5.87,-20.25,-15.89,0,*66
1486069217.32,3529,9.13,73064.8,-5.87,-20.25,-15.99,0,*66
1486069218.54,3530,9.13,73070.5,-5.89,-20.25,-15.99,0,*60
1486069219.8,3531,9.13,73070.5,-5.87,-20.19,-16.09,0,*6A
1486069221.02,3532,9.13,73072.0,-5.87,-20.05,-15.89,0,*6F
1486069222.23,3533,9.13,73060.3,-5.87,-19.95,-15.99,0,*6C
1486069223.45,3534,9.13,73060.8,-5.85,-19.99,-15.99,0,*65
1486069224.68,3535,9.13,73066.3,-5.83,-20.05,-16.09,0,*67
1486069225.92,3536,9.13,73056.0,-5.85,-20.05,-16.13,0,*69
1486069227.16,3537,9.13,73056.8,-5.83,-20.15,-16.27,0,*68
1486069228.41,3538,9.13,73060.0,-5.85,-20.15,-16.37,0,*60
1486069229.64,3539,9.13,73066.3,-5.85,-20.29,-16.51,0,*6E
1486069230.88,3540,9.13,73062.8,-5.85,-20.29,-16.69,0,*6B
1486069232.13,3541,9.13,73064.5,-5.85,-20.19,-16.75,0,*64
1486069233.38,3542,9.13,73062.5,-5.85,-20.15,-16.83,0,*62
1486069234.6,3543,9.13,73068.3,-5.83,-20.15,-16.83,0,*65
1486069235.8,3544,9.13,73070.8,-5.83,-19.99,-16.97,0,*69
1486069237.02,3545,9.13,73086.5,-5.83,-19.85,-16.97,0,*65
1486069238.28,3546,9.13,73070.8,-5.83,-19.61,-17.11,0,*63
1486069239.56,3547,9.13,73058.3,-5.85,-19.57,-17.17,0,*67
1486069240.82,3548,9.13,73050.5,-5.83,-19.57,-17.41,0,*6D
1486069242.1,3549,9.13,73058.0,-5.85,-19.57,-17.45,0,*6E
1486069243.35,3550,9.13,73070.3,-5.85,-19.37,-17.45,0,*60
1486069244.58,3551,9.13,73078.0,-5.83,-19.37,-17.63,0,*63
1486069245.86,3552,9.13,73080.8,-5.85,-19.41,-17.79,0,*6C
1486069247.09,3553,9.13,73076.8,-5.85,-19.37,-17.73,0,*66
1486069248.28,3554,9.13,73074.5,-5.83,-19.47,-17.73,0,*60
1486069249.51,3555,9.13,73062.3,-5.83,-19.47,-17.79,0,*6B
1486069250.74,3556,9.13,73070.8,-5.83,-19.57,-17.73,0,*63
1486069251.97,3557,9.13,73070.8,-5.83,-19.61,-17.73,0,*67
1486069253.25,3558,9.13,73064.8,-5.85,-19.57,-17.59,0,*63
1486069254.51,3559,9.13,73066.5,-5.83,-19.57,-17.45,0,*69
1486069255.74,3560,9.13,73064.8,-5.83,-19.37,-17.17,0,*62
1486069256.97,3561,9.13,73076.8,-5.83,-19.37,-17.11,0,*65
1486069258.19,3562,9.13,73060.0,-5.85,-19.37,-16.89,0,*60
1486069259.42,3563,9.13,73070.3,-5.83,-19.41,-16.97,0,*69
1486069260.62,3564,9.13,73068.0,-5.83,-19.47,-16.83,0,*6D
1486069261.86,3565,9.13,73076.0,-5.85,-19.37,-16.59,0,*6A
1486069263.06,3566,9.13,73060.0,-5.83,-19.37,-16.37,0,*67
1486069264.32,3567,9.13,73060.0,-5.85,-19.27,-16.37,0,*61
1486069265.55,3568,9.13,73064.8,-5.83,-19.37,-16.27,0,*68
1486069266.83,3569,9.13,73080.0,-5.85,-19.23,-16.09,0,*66
1486069268.09,3570,9.13,73064.0,-5.77,-19.07,-15.81,0,*66
1486069269.32,3571,9.13,73066.3,-5.83,-19.07,-15.85,0,*68
1486069270.55,3572,9.13,73064.8,-5.83,-18.93,-15.71,0,*6C
1486069271.75,3573,9.13,73056.5,-5.83,-18.83,-15.67,0,*6B
1486069272.96,3574,9.13,73068.8,-5.83,-18.07,-15.25,0,*66
1486069274.17,3575,9.13,73060.8,-5.79,-18.73,-15.53,0,*60
1486069275.38,3576,9.13,73062.8,-5.79,-18.65,-15.49,0,*6F
1486069276.61,3577,9.13,73062.8,-5.77,-18.73,-15.67,0,*6B
1486069277.81,3578,9.13,73068.3,-5.79,-18.73,-15.67,0,*6A
1486069279.04,3579,9.13,73070.8,-5.77,-18.79,-15.75,0,*6C
1486069280.27,3580,9.13,73068.3,-5.79,-19.07,-15.89,0,*6F
1486069281.53,3581,9.13,73064.8,-5.77,-19.37,-16.17,0,*67
1486069282.79,3582,9.13,73052.3,-5.77,-19.57,-16.37,0,*60
1486069284.05,3583,9.13,73048.8,-5.77,-19.57,-16.37,0,*61
1486069285.28,3584,9.13,73046.8,-5.77,-19.71,-16.55,0,*66
1486069286.53,3585,9.13,73048.5,-5.77,-19.95,-16.65,0,*6E
1486069287.78,3586,9.13,73040.8,-5.77,-20.15,-16.79,0,*62
1486069289.05,3587,9.13,73048.0,-5.77,-20.15,-16.69,0,*62
1486069290.3,3588,9.13,73052.3,-5.77,-20.35,-16.79,0,*6E
1486069291.52,3589,9.13,73050.8,-5.77,-20.63,-16.93,0,*68
1486069292.77,3590,9.13,73054.8,-5.77,-20.79,-16.97,0,*6F
1486069294.01,3591,9.13,73068.0,-5.79,-20.89,-17.07,0,*67
1486069295.27,3592,9.13,73062.5,-5.79,-21.03,-17.21,0,*63
1486069296.49,3593,9.13,73062.5,-5.75,-21.03,-17.31,0,*6F
1486069297.73,3594,9.13,73074.3,-5.77,-21.17,-17.35,0,*6B
1486069298.96,3595,9.13,73056.5,-5.79,-21.23,-17.35,0,*63
1486069300.21,3596,9.13,73078.3,-5.77,-21.39,-17.41,0,*66
1486069301.46,3597,9.13,73076.5,-5.77,-21.43,-17.59,0,*63
1486069302.75,3598,9.13,73078.0,-5.77,-21.67,-17.45,0,*67
1486069304.0,3599,9.13,73074.5,-5.77,-21.73,-17.59,0,*6E
1486069305.28,3600,9.13,73066.5,-5.77,-21.97,-17.59,0,*67
1486069306.51,3601,9.13,73060.3,-5.79,-22.11,-17.59,0,*65
1486069307.76,3602,9.13,73062.8,-5.79,-22.31,-17.55,0,*68
1486069309.02,3603,9.13,73064.5,-5.77,-22.37,-17.59,0,*6D
1486069310.27,3604,9.13,73066.3,-5.77,-22.63,-17.55,0,*67
1486069311.51,3605,9.13,73058.0,-5.77,-22.63,-17.55,0,*66
1486069312.77,3606,9.13,73072.8,-5.79,-22.47,-17.45,0,*6C
1486069314.03,3607,9.13,73070.8,-5.79,-22.47,-17.55,0,*6C
1486069315.23,3608,9.13,73072.3,-5.79,-22.63,-17.69,0,*6A
1486069316.44,3609,9.13,73076.5,-5.79,-22.53,-17.83,0,*6C
1486069317.67,3610,9.13,73072.0,-5.79,-22.63,-18.01,0,*62
1486069318.87,3611,9.13,73076.0,-5.79,-22.53,-18.25,0,*66
1486069320.1,3612,9.13,73078.8,-5.77,-22.53,-18.65,0,*6F
1486069321.3,3613,9.13,73078.0,-5.79,-22.53,-19.07,0,*65
1486069322.53,3614,9.13,73080.0,-5.79,-22.63,-19.41,0,*63
1486069323.73,3615,9.13,73080.0,-5.79,-22.83,-19.71,0,*6F
1486069324.94,3616,9.13,73074.0,-5.79,-22.97,-20.25,0,*62
1486069326.18,3617,9.13,73074.0,-5.79,-23.29,-20.59,0,*6C
1486069327.41,3618,9.13,73076.0,-5.79,-23.49,-20.93,0,*63
1486069328.65,3619,9.13,73078.0,-5.79,-23.75,-21.23,0,*67
1486069329.88,3620,9.13,73076.8,-5.79,-24.21,-21.43,0,*6D
1486069331.09,3621,9.13,73082.0,-5.83,-24.51,-21.73,0,*6D
1486069332.32,3622,9.13,73084.5,-5.83,-24.83,-22.03,0,*65
1486069333.57,3623,9.13,73078.5,-5.85,-25.13,-22.31,0,*6B
1486069334.82,3624,9.13,73078.5,-5.83,-25.29,-22.31,0,*63
1486069336.02,3625,9.13,73082.8,-5.83,-25.49,-22.37,0,*62
1486069337.24,3626,9.13,73074.8,-5.83,-25.81,-22.67,0,*60
1486069338.49,3627,9.13,73074.3,-5.85,-25.91,-22.73,0,*63
1486069339.69,3628,9.13,73076.8,-5.83,-26.07,-22.83,0,*69
1486069340.9,3629,9.13,73078.5,-5.85,-26.23,-22.87,0,*6C
1486069342.1,3630,9.13,73074.3,-5.83,-26.23,-22.87,0,*62
1486069343.35,3631,9.13,73076.3,-5.85,-26.23,-23.19,0,*63
1486069344.57,3632,9.13,73076.8,-5.83,-26.39,-23.19,0,*6D
1486069345.84,3633,9.13,73064.5,-5.85,-26.55,-23.33,0,*68
1486069347.09,3634,9.13,73064.8,-5.85,-26.45,-23.49,0,*63
1486069348.34,3635,9.13,73056.3,-5.85,-26.45,-23.53,0,*69
1486069349.6,3636,9.13,73048.0,-5.85,-26.55,-23.95,0,*61
1486069350.85,3637,9.13,73044.0,-5.83,-26.81,-24.11,0,*64
1486069352.11,3638,9.13,73050.5,-5.83,-26.93,-24.25,0,*6F
1486069353.36,3639,9.13,73070.8,-5.85,-26.93,-24.61,0,*68
1486069354.63,3640,9.13,73066.3,-5.85,-26.97,-24.67,0,*64
1486069355.88,3641,9.13,73072.0,-5.85,-27.13,-24.83,0,*62
1486069357.11,3642,9.13,73072.3,-5.85,-27.29,-25.13,0,*60
1486069358.34,3643,9.13,73068.5,-5.83,-27.45,-25.23,0,*6E
1486069359.57,3644,9.13,73056.0,-5.85,-27.67,-25.39,0,*64
1486069360.83,3645,9.13,73056.5,-5.87,-27.99,-25.71,0,*6A
1486069362.11,3646,9.13,73052.5,-5.85,-28.05,-25.81,0,*6E
1486069363.36,3647,9.13,73054.8,-5.85,-28.15,-25.97,0,*69
1486069364.61,3648,9.13,73048.3,-5.85,-28.31,-25.97,0,*60
1486069365.88,3649,9.13,73056.5,-5.85,-28.47,-25.97,0,*60
1486069367.14,3650,9.13,73064.5,-5.87,-28.63,-26.17,0,*67
1486069368.36,3651,9.13,73056.8,-5.85,-28.69,-26.07,0,*6F
1486069369.59,3652,9.13,73064.0,-5.85,-28.85,-26.07,0,*6E
1486069370.85,3653,9.13,73052.3,-5.85,-28.85,-25.97,0,*65
1486069372.11,3654,9.13,73056.5,-5.89,-29.07,-25.97,0,*65
1486069373.34,3655,9.13,73068.3,-5.87,-29.07,-25.97,0,*6A
1486069374.57,3656,9.13,73068.3,-5.87,-29.01,-25.87,0,*6E
1486069375.84,3657,9.13,73062.0,-5.87,-29.01,-25.55,0,*60
1486069377.12,3658,9.13,73072.5,-5.89,-29.01,-25.45,0,*60
1486069378.35,3659,9.13,73078.5,-5.89,-28.85,-25.19,0,*65
1486069379.58,3660,9.13,73068.3,-5.89,-28.85,-25.19,0,*6F
1486069380.81,3661,9.13,73072.0,-5.87,-28.91,-25.13,0,*6F
1486069382.07,3662,9.13,73072.0,-5.87,-29.01,-25.03,0,*65
1486069383.35,3663,9.13,73068.8,-5.89,-29.01,-24.83,0,*63
1486069384.63,3664,9.13,73078.5,-5.89,-29.01,-24.71,0,*69
1486069385.86,3665,9.13,73074.0,-5.89,-29.07,-24.47,0,*6B
1486069387.06,3666,9.13,73070.5,-5.87,-29.07,-24.35,0,*63
1486069388.31,3667,9.13,73066.3,-5.89,-29.07,-24.15,0,*6E
1486069389.56,3668,9.13,73058.8,-5.89,-29.23,-24.15,0,*67
1486069390.8,3669,9.13,73062.0,-5.89,-29.17,-23.89,0,*63
1486069392.03,3670,9.13,73068.5,-5.89,-29.07,-23.75,0,*69
1486069393.31,3671,9.13,73072.5,-5.89,-29.01,-23.53,0,*6A
1486069394.57,3672,9.13,73054.3,-5.87,-29.01,-23.33,0,*61
1486069395.84,3673,9.13,73066.3,-5.89,-29.01,-23.33,0,*6E
1486069397.13,3674,9.13,73078.3,-5.89,-29.01,-23.19,0,*61
1486069398.38,3675,9.13,73074.8,-5.89,-28.85,-23.03,0,*66
1486069399.63,3676,9.13,73062.0,-5.89,-28.75,-22.87,0,*67
1486069400.9,3677,9.13,73060.5,-5.89,-28.37,-22.47,0,*6C
1486069402.1,3678,9.13,73066.8,-5.87,-28.37,-22.57,0,*6C
1486069403.32,3679,9.13,73074.5,-5.89,-28.15,-22.41,0,*64
1486069404.58,3680,9.13,73076.0,-5.89,-28.15,-22.47,0,*64
1486069405.83,3681,9.13,73074.5,-5.89,-28.05,-22.41,0,*62
1486069407.03,3682,9.13,73068.8,-5.87,-27.89,-22.57,0,*63
1486069408.26,3683,9.13,73068.5,-5.89,-27.71,-22.41,0,*6C
1486069409.51,3684,9.13,73066.8,-5.89,-27.45,-22.63,0,*6C
1486069410.76,3685,9.13,73072.8,-5.89,-27.29,-22.73,0,*66
1486069412.02,3686,9.13,73050.0,-5.89,-27.13,-22.77,0,*68
1486069413.22,3687,9.13,73064.0,-5.87,-27.03,-22.93,0,*6C
1486069414.51,3688,9.13,73078.0,-5.89,-26.81,-23.23,0,*6C
1486069415.77,3689,9.13,73076.8,-5.89,-26.81,-23.39,0,*66
1486069417.02,3690,9.13,73076.0,-5.89,-26.81,-23.59,0,*68
1486069418.28,3691,9.13,73068.8,-5.89,-26.81,-23.75,0,*67
1486069419.55,3692,9.13,73064.5,-5.89,-26.71,-23.99,0,*69
1486069420.81,3693,9.13,73068.8,-5.89,-26.81,-24.31,0,*62
1486069422.06,3694,9.13,73080.5,-5.89,-26.81,-24.35,0,*61
1486069423.34,3695,9.13,73066.3,-5.89,-26.81,-24.67,0,*67
1486069424.56,3696,9.13,73062.5,-5.89,-27.03,-24.97,0,*60
1486069425.81,3697,9.13,73066.3,-5.89,-27.19,-25.19,0,*6D
1486069427.04,3698,9.13,73070.0,-5.91,-27.39,-25.35,0,*67
1486069428.24,3699,9.13,73070.0,-5.91,-27.51,-25.23,0,*6F
1486069429.45,3700,9.13,73066.3,-5.91,-27.71,-25.39,0,*67
1486069430.65,3701,9.13,73072.0,-5.91,-27.77,-25.39,0,*60
1486069431.86,3702,9.13,73072.5,-5.91,-27.93,-25.39,0,*69
1486069433.1,3703,9.13,73076.0,-5.91,-28.21,-25.39,0,*6E
1486069434.32,3704,9.13,73072.0,-5.89,-28.31,-25.35,0,*6D
1486069435.53,3705,9.13,73060.8,-5.87,-28.53,-25.19,0,*68
1486069436.78,3706,9.13,73068.5,-5.89,-28.75,-25.13,0,*6B
1486069438.06,3707,9.13,73070.3,-5.89,-28.75,-24.87,0,*66
1486069439.31,3708,9.13,73066.0,-5.89,-28.85,-24.83,0,*62
1486069440.56,3709,9.13,73058.8,-5.89,-28.75,-24.57,0,*65
1486069441.77,3710,9.13,73064.8,-5.87,-28.69,-24.47,0,*6F
1486069442.99,3711,9.13,73054.0,-5.87,-28.63,-24.05,0,*62
1486069444.22,3712,9.13,73060.5,-5.89,-28.53,-23.89,0,*6F
1486069445.45,3713,9.13,73066.3,-5.89,-28.37,-23.75,0,*6F
1486069446.73,3714,9.13,73062.5,-5.89,-28.21,-23.49,0,*60
1486069448.01,3715,9.13,73056.5,-5.89,-28.05,-23.33,0,*6A
1486069449.27,3716,9.13,73064.8,-5.87,-28.05,-23.33,0,*67
1486069450.55,3717,9.13,73070.0,-5.89,-27.99,-23.19,0,*6A
1486069451.78,3718,9.13,73074.5,-5.87,-27.71,-23.03,0,*66
1486069453.04,3719,9.13,73070.8,-5.89,-27.61,-22.93,0,*60
1486069454.27,3720,9.13,73072.0,-5.89,-27.51,-22.87,0,*6C
1486069455.55,3721,9.13,73066.3,-5.89,-27.45,-22.77,0,*67
1486069456.8,3722,9.13,73072.5,-5.89,-27.29,-22.73,0,*6A
1486069458.03,3723,9.13,73068.3,-5.87,-27.19,-22.63,0,*67
1486069459.27,3724,9.13,73064.5,-5.89,-27.19,-22.63,0,*6E
1486069460.52,3725,9.13,73068.0,-5.89,-27.19,-22.63,0,*6F
1486069461.72,3726,9.13,73068.3,-5.87,-27.13,-22.57,0,*6F
1486069462.98,3727,9.13,73056.0,-5.89,-27.13,-22.47,0,*61
1486069464.2,3728,9.13,73056.3,-5.89,-27.13,-22.41,0,*68
1486069465.42,3729,9.13,73060.3,-5.89,-27.03,-22.37,0,*69
1486069466.68,3730,9.13,73050.8,-5.89,-26.97,-22.11,0,*69
1486069467.92,3731,9.13,73052.0,-5.87,-26.97,-21.93,0,*6F
1486069469.14,3732,9.13,73058.3,-5.89,-26.87,-21.77,0,*69
1486069470.42,3733,9.13,73056.8,-5.89,-26.81,-21.53,0,*68
1486069471.68,3734,9.13,73054.5,-5.89,-27.03,-21.53,0,*64
1486069472.93,3735,9.13,73052.0,-5.87,-26.97,-21.33,0,*61
1486069474.17,3736,9.06,73048.3,-5.87,-26.81,-21.13,0,*67
1486069475.45,3737,9.13,73060.5,-5.89,-26.81,-21.03,0,*69
1486069476.66,3738,9.13,73062.3,-5.87,-26.65,-20.73,0,*64
1486069477.9,3739,9.13,73060.5,-5.87,-26.17,-20.59,0,*68
1486069479.18,3740,9.13,73066.8,-5.85,-25.97,-20.35,0,*65
1486069480.38,3741,9.13,73070.8,-5.87,-25.65,-20.29,0,*66
1486069481.61,3742,9.13,73060.0,-5.87,-25.35,-20.19,0,*63
1486069482.86,3743,9.13,73056.5,-5.87,-25.29,-20.19,0,*6F
1486069484.07,3744,9.13,73056.5,-5.87,-25.13,-20.25,0,*6E
1486069485.31,3745,9.06,73044.8,-5.87,-24.83,-20.09,0,*69
1486069486.52,3746,9.13,73046.3,-5.87,-24.57,-20.25,0,*6D
1486069487.73,3747,9.13,73036.8,-5.87,-24.57,-20.39,0,*61
1486069488.97,3748,9.13,73050.3,-5.87,-24.31,-20.53,0,*62
1486069490.21,3749,9.13,73046.8,-5.87,-24.21,-20.69,0,*6B
1486069491.44,3750,9.13,73048.5,-5.87,-24.15,-20.89,0,*6A
1486069492.68,3751,9.13,73046.5,-5.87,-24.05,-21.03,0,*69
1486069493.94,3752,9.13,73054.0,-5.87,-23.99,-21.27,0,*6E
1486069495.19,3753,9.13,73058.8,-5.85,-23.85,-21.47,0,*66
1486069496.39,3754,9.13,73064.5,-5.87,-23.89,-21.77,0,*6C
1486069497.62,3755,9.13,73054.0,-5.83,-23.85,-22.03,0,*65
1486069498.89,3756,9.13,73054.0,-5.85,-23.85,-22.31,0,*61
1486069500.14,3757,9.06,73054.5,-5.85,-23.95,-22.41,0,*66
1486069501.4,3758,9.13,73050.5,-5.85,-24.25,-22.83,0,*6B
1486069502.68,3759,9.13,73050.0,-5.85,-24.41,-23.03,0,*61
1486069503.91,3760,9.13,73062.8,-5.85,-24.31,-23.13,0,*6D
1486069505.13,3761,9.13,73070.8,-5.87,-24.87,-23.59,0,*6D
1486069506.38,3762,9.13,73062.8,-5.87,-25.03,-23.99,0,*6F
1486069507.65,3763,9.13,73060.5,-5.85,-25.29,-24.11,0,*63
1486069508.89,3764,9.13,73056.3,-5.83,-25.45,-24.25,0,*6F
1486069510.14,3765,9.13,73062.3,-5.85,-25.65,-24.41,0,*68
1486069511.34,3766,9.13,73050.0,-5.87,-25.91,-24.61,0,*60
1486069512.58,3767,9.13,73050.5,-5.87,-26.03,-24.71,0,*68
1486069513.83,3768,9.13,73050.3,-5.87,-26.29,-24.83,0,*62
1486069515.06,3769,9.13,73046.3,-5.85,-26.39,-24.93,0,*61
1486069516.31,3770,9.13,73044.0,-5.85,-26.81,-25.23,0,*60
1486069517.59,3771,9.13,73062.0,-5.85,-26.81,-25.29,0,*6B
1486069518.82,3772,9.13,73068.0,-5.85,-27.07,-25.39,0,*66
1486069520.08,3773,9.13,73068.0,-5.85,-27.29,-25.45,0,*60
1486069521.29,3774,9.13,73064.0,-5.87,-27.67,-25.65,0,*6D
1486069522.52,3775,9.13,73060.5,-5.85,-27.93,-25.65,0,*65
1486069523.72,3776,9.13,73048.0,-5.87,-28.31,-25.87,0,*6F
1486069524.95,3777,9.13,73062.5,-5.87,-28.53,-25.81,0,*6C
1486069526.21,3778,9.13,73066.8,-5.87,-28.91,-25.81,0,*6D
1486069527.44,3779,9.13,73064.0,-5.87,-29.07,-25.81,0,*62
1486069528.68,3780,9.13,73066.0,-5.87,-29.17,-25.65,0,*6F
1486069529.94,3781,9.13,73058.0,-5.85,-29.35,-25.49,0,*62
1486069531.22,3782,9.13,73060.0,-5.85,-29.51,-25.45,0,*6F
1486069532.43,3783,9.13,73058.5,-5.87,-29.67,-25.35,0,*6E
1486069533.66,3784,9.13,73056.5,-5.85,-29.83,-25.13,0,*65
1486069534.91,3785,9.13,73066.8,-5.87,-30.05,-25.29,0,*69
1486069536.16,3786,9.13,73058.0,-5.85,-30.05,-24.97,0,*6C
1486069537.39,3787,9.13,73058.5,-5.87,-30.23,-24.71,0,*63
1486069538.61,3788,9.13,73056.8,-5.87,-30.23,-24.67,0,*6B
1486069539.8,3789,9.13,73060.5,-5.87,-30.23,-24.31,0,*69
1486069541.02,3790,9.13,73066.5,-5.87,-30.39,-24.35,0,*6E
1486069542.27,3791,9.13,73064.0,-5.85,-30.33,-24.25,0,*66
1486069543.53,3792,9.13,73066.5,-5.85,-30.51,-23.95,0,*6D
1486069544.76,3793,9.13,73062.8,-5.87,-30.27,-23.49,0,*6E
1486069545.96,3794,9.13,73070.8,-5.87,-30.27,-23.39,0,*6E
1486069547.19,3795,9.13,73068.0,-5.87,-30.39,-23.09,0,*63
1486069548.39,3796,9.13,73070.0,-5.87,-30.23,-22.87,0,*6C
1486069549.61,3797,9.13,73068.5,-5.87,-30.23,-22.73,0,*66
1486069550.88,3798,9.13,73070.0,-5.85,-30.05,-22.31,0,*69
1486069552.16,3799,9.13,73070.5,-5.85,-30.05,-22.17,0,*6C
1486069553.41,3800,9.06,73060.5,-5.85,-29.83,-21.57,0,*62
1486069554.64,3801,9.13,73076.0,-5.85,-29.83,-21.47,0,*62
1486069555.89,3802,9.13,73072.0,-5.85,-30.01,-21.47,0,*63
1486069557.14,3803,9.13,73068.5,-5.85,-29.79,-21.23,0,*67
1486069558.4,3804,9.13,73066.5,-5.87,-29.73,-20.83,0,*63
1486069559.63,3805,9.06,73060.5,-5.85,-29.61,-20.63,0,*6D
1486069560.91,3806,9.13,73066.8,-5.85,-29.35,-20.19,0,*62
1486069562.12,3807,9.13,73068.5,-5.87,-29.23,-20.05,0,*6B
1486069563.37,3808,9.13,73074.3,-5.85,-29.13,-19.71,0,*6C
1486069564.6,3809,9.13,73074.3,-5.83,-28.97,-19.57,0,*62
1486069565.88,3810,9.13,73076.8,-5.85,-28.79,-19.27,0,*6B
1486069567.11,3811,9.06,73066.0,-5.85,-28.47,-18.99,0,*63
1486069568.36,3812,9.13,73058.3,-5.85,-28.09,-18.65,0,*69
1486069569.61,3813,9.13,73052.0,-5.85,-28.09,-18.45,0,*6A
1486069570.87,3814,9.13,73052.5,-5.85,-27.77,-18.31,0,*68
1486069572.12,3815,9.06,73060.3,-5.85,-27.45,-18.07,0,*6D
1486069573.39,3816,9.13,73062.0,-5.85,-27.23,-17.79,0,*68
1486069574.64,3817,9.13,73066.5,-5.85,-27.23,-17.73,0,*63
1486069575.89,3818,9.13,73060.8,-5.85,-26.93,-17.49,0,*6F
1486069577.13,3819,9.13,73062.5,-5.85,-26.13,-16.89,0,*6B
1486069578.38,3820,9.13,73064.5,-5.85,-25.97,-16.89,0,*6E
1486069579.61,3821,9.13,73056.8,-5.83,-25.81,-16.75,0,*6D
1486069580.82,3822,9.13,73064.5,-5.83,-25.39,-16.59,0,*63
1486069582.01,3823,9.13,73056.5,-5.79,-25.09,-16.45,0,*69
1486069583.26,3824,9.13,73044.0,-5.79,-25.03,-16.69,0,*6A
1486069584.49,3825,9.13,73056.3,-5.83,-24.61,-16.51,0,*60
1486069585.72,3826,9.06,73052.8,-5.79,-24.25,-16.45,0,*63
1486069586.97,3827,9.13,73054.8,-5.83,-23.65,-16.27,0,*60
1486069588.17,3828,9.13,73062.8,-5.83,-23.13,-16.37,0,*6F
1486069589.39,3829,9.13,73052.3,-5.83,-22.83,-16.27,0,*67
1486069590.63,3830,9.13,73046.8,-5.79,-22.47,-16.55,0,*67
1486069591.83,3831,9.13,73046.0,-5.79,-22.11,-16.79,0,*6B
1486069593.1,3832,9.13,73038.3,-5.77,-22.17,-17.35,0,*69
1486069594.3,3833,9.13,73044.8,-5.79,-22.37,-17.87,0,*6D
1486069595.56,3834,9.13,73056.5,-5.77,-22.37,-18.31,0,*66
1486069596.83,3835,9.13,73050.8,-5.77,-22.31,-18.59,0,*6F
1486069598.06,3836,9.06,73050.8,-5.77,-22.37,-19.17,0,*61
1486069599.31,3837,9.13,73064.3,-5.77,-22.31,-19.37,0,*64
1486069600.54,3838,9.13,73062.5,-5.77,-22.67,-19.95,0,*60
1486069601.81,3839,9.13,73068.0,-5.77,-23.09,-20.49,0,*63
1486069603.05,3840,9.13,73060.0,-5.77,-23.39,-20.79,0,*6D
1486069604.28,3841,9.13,73070.8,-5.77,-23.59,-21.09,0,*6C
1486069605.53,3842,9.13,73066.3,-5.77,-23.89,-21.33,0,*6B
1486069606.76,3843,9.06,73068.8,-5.77,-24.05,-21.39,0,*63
1486069607.99,3844,9.13,73072.8,-5.77,-24.47,-21.39,0,*62
1486069609.26,3845,9.13,73068.8,-5.77,-24.71,-21.39,0,*66
1486069610.51,3846,9.13,73062.0,-5.77,-25.03,-21.39,0,*61
1486069611.76,3847,9.06,73064.3,-5.75,-25.03,-21.33,0,*68
1486069612.99,3848,9.13,73058.3,-5.75,-25.49,-21.33,0,*69
1486069614.27,3849,9.13,73062.8,-5.73,-25.81,-21.27,0,*6F
1486069615.53,3850,9.13,73060.8,-5.75,-25.97,-20.99,0,*62
1486069616.76,3851,9.13,73066.5,-5.75,-26.17,-20.73,0,*6C
1486069617.97,3852,9.06,73058.5,-5.75,-26.49,-20.69,0,*6F
1486069619.2,3853,9.06,73068.0,-5.75,-26.55,-20.39,0,*66
1486069620.45,3854,9.13,73068.3,-5.75,-26.55,-19.81,0,*68
1486069621.7,3855,9.13,73064.3,-5.73,-26.71,-19.51,0,*64
1486069622.93,3856,9.13,73062.8,-5.75,-26.71,-19.37,0,*61
1486069624.12,3857,9.13,73070.5,-5.75,-26.87,-19.03,0,*6E
1486069625.32,3858,9.06,73060.8,-5.75,-27.13,-18.73,0,*6B
1486069626.56,3859,9.13,73066.3,-5.75,-26.97,-18.45,0,*62
1486069627.79,3860,9.06,73062.5,-5.75,-26.97,-18.07,0,*6E
1486069629.02,3861,9.13,73058.3,-5.75,-26.87,-17.63,0,*63
1486069630.28,3862,9.06,73054.8,-5.75,-26.97,-17.21,0,*67
1486069631.51,3863,9.13,73068.5,-5.75,-26.65,-16.65,0,*6A
1486069632.74,3864,9.13,73058.5,-5.75,-26.45,-16.17,0,*6A
1486069633.98,3865,9.13,73052.0,-5.75,-26.29,-15.75,0,*66
1486069635.22,3866,9.13,73052.5,-5.75,-26.03,-15.39,0,*65
1486069636.45,3867,9.13,73050.8,-5.75,-25.65,-14.83,0,*67
1486069637.67,3868,9.13,73050.3,-5.75,-25.35,-14.55,0,*66
1486069638.89,3869,9.13,73034.8,-5.75,-24.87,-14.11,0,*6F
1486069640.12,3870,9.13,73056.8,-5.73,-24.35,-13.65,0,*6C
1486069641.37,3871,9.13,73046.5,-5.73,-24.05,-13.29,0,*66
1486069642.6,3872,9.13,73040.3,-5.73,-23.59,-12.97,0,*6F
1486069643.86,3873,9.13,73054.0,-5.73,-22.87,-12.53,0,*64
1486069645.11,3874,9.06,73062.5,-5.73,-22.57,-12.53,0,*6E
1486069646.34,3875,9.13,73064.5,-5.73,-22.41,-12.39,0,*64
1486069647.59,3876,9.13,73064.5,-5.73,-22.11,-12.11,0,*68
1486069648.87,3877,9.13,73056.0,-5.73,-21.97,-12.11,0,*64
1486069650.12,3878,9.06,73056.8,-5.73,-21.47,-11.85,0,*68
1486069651.39,3879,9.13,73062.5,-5.73,-21.27,-11.73,0,*66
1486069652.67,3880,9.13,73056.5,-5.73,-20.99,-11.55,0,*60
1486069653.95,3881,9.13,73058.0,-5.73,-20.53,-11.29,0,*6C
1486069655.17,3882,9.06,73064.0,-5.73,-20.09,-11.01,0,*6A
1486069656.39,3883,9.06,73064.0,-5.73,-19.75,-10.85,0,*67
1486069657.65,3884,9.06,73058.5,-5.73,-19.47,-10.71,0,*6A
1486069658.88,3885,9.13,73058.5,-5.73,-19.13,-10.49,0,*61
1486069660.11,3886,9.13,73056.8,-5.73,-18.69,-10.09,0,*6A
1486069661.34,3887,9.13,73054.8,-5.69,-18.25,-9.93,0,*53
1486069662.54,3888,9.06,73050.8,-5.71,-17.87,-9.89,0,*59
1486069663.79,3889,9.13,73060.5,-5.69,-17.41,-9.79,0,*54
1486069665.02,3890,9.06,73066.0,-5.71,-17.11,-9.75,0,*5C
1486069666.24,3891,9.06,73050.0,-5.69,-16.79,-9.67,0,*58
1486069667.44,3892,9.06,73052.8,-5.71,-16.55,-9.75,0,*5F
1486069668.69,3893,9.13,73066.3,-5.71,-16.23,-9.83,0,*56
1486069669.92,3894,9.06,73060.0,-5.71,-15.85,-9.89,0,*54
1486069671.13,3895,9.13,73062.8,-5.71,-15.67,-10.01,0,*61
1486069672.37,3896,9.13,73070.0,-5.71,-15.43,-10.19,0,*6D
1486069673.6,3897,9.13,73062.5,-5.71,-15.21,-10.19,0,*68
1486069674.83,3898,9.06,73062.0,-5.71,-14.93,-10.31,0,*65
1486069676.11,3899,9.06,73064.5,-5.69,-14.75,-10.41,0,*62
1486069677.37,3900,9.06,73060.0,-5.69,-14.65,-10.41,0,*62
1486069678.6,3901,9.06,73062.0,-5.71,-14.55,-10.57,0,*6E
1486069679.89,3902,9.06,73056.0,-5.69,-14.51,-10.67,0,*63
1486069681.18,3903,9.13,73062.5,-5.69,-14.47,-10.63,0,*61
1486069682.47,3904,9.06,73064.0,-5.69,-14.51,-10.79,0,*6A
1486069683.75,3905,9.13,73052.8,-5.69,-14.51,-10.75,0,*67
1486069684.98,3906,9.13,73058.0,-5.69,-14.61,-10.93,0,*6F
1486069686.21,3907,9.13,73060.8,-5.69,-14.61,-10.97,0,*6A
1486069687.43,3908,9.06,73056.5,-5.69,-14.65,-11.11,0,*6E
1486069688.68,3909,9.06,73060.3,-5.69,-14.75,-11.11,0,*6E
1486069689.9,3910,9.13,73072.3,-5.69,-14.89,-11.23,0,*64
1486069691.15,3911,9.13,73068.5,-5.69,-15.07,-11.33,0,*63
1486069692.41,3912,9.06,73072.0,-5.69,-15.21,-11.33,0,*64
1486069693.65,3913,9.06,73068.8,-5.69,-15.49,-11.33,0,*6B
1486069694.85,3914,9.06,73070.0,-5.67,-15.63,-11.45,0,*6B
1486069696.08,3915,9.06,73074.0,-5.67,-15.89,-11.45,0,*6E
1486069697.3,3916,9.13,73074.0,-5.67,-16.03,-11.37,0,*69
1486069698.52,3917,9.06,73066.0,-5.67,-16.31,-11.19,0,*65
1486069699.73,3918,9.06,73064.5,-5.67,-16.41,-10.97,0,*6A
1486069700.96,3919,9.06,73052.8,-5.65,-16.55,-10.93,0,*68
1486069702.21,3920,9.06,73042.8,-5.65,-16.93,-10.79,0,*6C
1486069703.47,3921,9.06,73038.0,-5.67,-17.07,-10.67,0,*6C
1486069704.73,3922,9.06,73038.0,-5.65,-17.25,-10.53,0,*6A
1486069705.95,3923,9.06,73046.8,-5.67,-17.25,-10.49,0,*62
1486069707.22,3924,9.06,73056.3,-5.65,-17.45,-10.35,0,*6A
1486069708.47,3925,9.13,73062.8,-5.65,-17.45,-10.09,0,*64
1486069709.69,3926,9.13,73064.5,-5.65,-17.31,-9.97,0,*5B
1486069710.91,3927,9.06,73058.0,-5.65,-17.31,-9.67,0,*55
1486069712.15,3928,9.13,73056.3,-5.67,-17.21,-9.57,0,*5A